La Porte, IN

8:30 AM CDT on August 22, 2017 (GMT -0500)
La Porte Municipal

Weather History for KPPO - March, 2014

Change the Weather History Date:

Saturday, March 29, 2014

  Actual Average (KSBN) Record (KSBN)
Temperature  
Mean Temperature 32 °F -  
Max Temperature 38 °F 51 °F 82 °F (1910)
Min Temperature 27 °F 36 °F 12 °F (1923)
Degree Days  
Heating Degree Days 32    
Moisture  
Dew Point 28 °F    
Average Humidity 85    
Maximum Humidity 92    
Minimum Humidity 76    
Precipitation  
Precipitation 0.00 in - - ()
Sea Level Pressure  
Sea Level Pressure 30.17 in    
Wind  
Wind Speed 7 mph (North)    
Max Wind Speed 17 mph    
Max Gust Speed 21 mph    
Visibility 9 miles    
Events Snow    
Averages and records for this station are not official NWS values.
T = Trace of Precipitation, MM = Missing Value Source: NWS Daily Summary

Daily Weather History Graph

Daily Weather History Graph

Search for Another Location

Airport or City:

Trip Planner

Search our weather history database for the weather conditions in past years. The results will help you decide how hot, cold, wet, or windy it might be!

Date:

Astronomy

Mar. 29, 2014 Rise Set
Actual Time 6:34 AM CDT 7:08 PM CDT
Civil Twilight 6:07 AM CDT 7:36 PM CDT
Nautical Twilight 5:34 AM CDT 8:09 PM CDT
Astronomical Twilight 5:00 AM CDT 8:43 PM CDT
Moon 5:44 AM CDT (3/29) 6:13 PM CDT (3/29)
Length of Visible Light 13h 29m
Length of Day
12h 34m
Waning Crescent, 2% of the Moon is Illuminated
Mar 29
Waning Crescent
Mar 30
New
Apr 7
First Quarter
Apr 15
Full
Apr 22
Last Quarter

Hourly Weather History & Observations

Time (CDT) Temp. Windchill Dew Point Humidity Pressure Visibility Wind Dir Wind Speed Gust Speed Precip Events Conditions
12:15 AM 30.2 °F 26.7 °F 26.6 °F 86% 30.17 in 10.0 mi East 3.5 mph - N/A   Clear
12:35 AM 30.2 °F - 27.0 °F 88% 30.19 in 10.0 mi Calm Calm - N/A   Scattered Clouds
12:55 AM 30.7 °F - 27.1 °F 86% 30.19 in 10.0 mi Calm Calm - N/A   Overcast
1:15 AM 30.6 °F - 27.0 °F 86% 30.18 in 10.0 mi Calm Calm - N/A   Overcast
1:35 AM 30.7 °F 27.3 °F 27.1 °F 86% 30.17 in 10.0 mi ENE 3.5 mph - N/A   Overcast
1:55 AM 30.7 °F 27.3 °F 27.1 °F 86% 30.15 in 10.0 mi NE 3.5 mph - N/A   Overcast
2:15 AM 30.9 °F - 27.1 °F 86% 30.15 in 10.0 mi Calm Calm - N/A   Overcast
2:35 AM 30.9 °F 26.2 °F 27.3 °F 86% 30.15 in 10.0 mi NNE 4.6 mph - N/A   Overcast
2:55 AM 31.1 °F - 27.5 °F 87% 30.16 in 10.0 mi Calm Calm - N/A   Overcast
3:15 AM 31.1 °F 27.7 °F 27.9 °F 88% 30.15 in 10.0 mi NNE 3.5 mph - N/A   Overcast
3:35 AM 31.5 °F 25.8 °F 28.2 °F 88% 30.14 in 7.0 mi North 5.8 mph - N/A   Overcast
3:55 AM 31.5 °F 24.9 °F 28.4 °F 88% 30.14 in 7.0 mi NNE 6.9 mph - N/A   Overcast
4:15 AM 31.1 °F 24.5 °F 27.5 °F 87% 30.13 in 10.0 mi NNE 6.9 mph - N/A   Overcast
4:35 AM 30.9 °F 22.8 °F 27.5 °F 87% 30.15 in 7.0 mi North 9.2 mph - N/A   Overcast
4:55 AM 30.9 °F 24.3 °F 27.5 °F 87% 30.14 in 10.0 mi NE 6.9 mph - N/A   Overcast
5:15 AM 30.9 °F 25.2 °F 27.5 °F 87% 30.14 in 10.0 mi NNE 5.8 mph - N/A   Overcast
5:35 AM 31.1 °F 25.4 °F 27.9 °F 88% 30.14 in 10.0 mi North 5.8 mph - N/A   Overcast
5:55 AM 31.1 °F 23.7 °F 27.5 °F 87% 30.14 in 10.0 mi North 8.1 mph - N/A   Overcast
6:15 AM 31.1 °F 23.7 °F 27.9 °F 88% 30.14 in 10.0 mi North 8.1 mph - N/A   Overcast
6:35 AM 31.1 °F 23.1 °F 28.0 °F 88% 30.15 in 10.0 mi North 9.2 mph - N/A   Overcast
6:55 AM 31.5 °F 24.9 °F 28.4 °F 88% 30.15 in 10.0 mi NNE 6.9 mph - N/A   Overcast
7:15 AM 31.6 °F 24.4 °F 28.4 °F 88% 30.15 in 7.0 mi NNE 8.1 mph - N/A   Overcast
7:35 AM 32.0 °F 24.8 °F 28.8 °F 88% 30.15 in 4.0 mi North 8.1 mph - N/A   Overcast
7:55 AM 32.0 °F 24.8 °F 29.1 °F 89% 30.14 in 4.0 mi NNE 8.1 mph - N/A Snow Light Snow
8:15 AM 32.2 °F 24.4 °F 29.3 °F 89% 30.13 in 5.0 mi NNE 9.2 mph - N/A   Overcast
8:35 AM 32.7 °F 23.9 °F 29.7 °F 88% 30.13 in 7.0 mi NNE 11.5 mph - N/A   Overcast
8:55 AM 33.1 °F 24.9 °F 29.8 °F 88% 30.14 in 7.0 mi North 10.4 mph - N/A   Overcast
9:15 AM 33.3 °F 25.1 °F 30.0 °F 88% 30.15 in 7.0 mi North 10.4 mph - N/A   Overcast
9:35 AM 33.3 °F 25.1 °F 29.8 °F 87% 30.16 in 10.0 mi North 10.4 mph - N/A   Overcast
9:55 AM 33.8 °F 25.8 °F 30.2 °F 87% 30.16 in 7.0 mi NNE 10.4 mph - N/A   Overcast
10:15 AM 34.2 °F 25.7 °F 30.7 °F 87% 30.16 in 7.0 mi NNE 11.5 mph - N/A   Overcast
10:35 AM 34.9 °F 27.7 °F 30.9 °F 85% 30.17 in 10.0 mi NNE 9.2 mph - N/A   Overcast
10:55 AM 35.2 °F 28.1 °F 30.9 °F 84% 30.16 in 10.0 mi NNE 9.2 mph - N/A   Overcast
11:15 AM 35.6 °F 28.6 °F 30.7 °F 82% 30.16 in 10.0 mi NNE 9.2 mph - N/A   Overcast
11:35 AM 35.6 °F 28.6 °F 30.7 °F 82% 30.17 in 10.0 mi North 9.2 mph - N/A   Overcast
11:55 AM 35.1 °F 27.4 °F 30.6 °F 84% 30.17 in 10.0 mi NNW 10.4 mph - N/A   Overcast
12:15 PM 35.2 °F 27.6 °F 30.9 °F 84% 30.16 in 10.0 mi North 10.4 mph - N/A   Overcast
12:35 PM 35.2 °F 27.1 °F 30.7 °F 84% 30.16 in 10.0 mi NNW 11.5 mph - N/A   Overcast
12:55 PM 34.7 °F 25.9 °F 30.2 °F 84% 30.15 in 7.0 mi North 12.7 mph - N/A   Overcast
1:15 PM 34.9 °F 26.6 °F 30.2 °F 83% 30.15 in 7.0 mi North 11.5 mph - N/A   Overcast
1:35 PM 35.6 °F 28.0 °F 30.6 °F 82% 30.14 in 10.0 mi North 10.4 mph - N/A   Overcast
1:55 PM 35.6 °F 27.5 °F 30.6 °F 82% 30.14 in 10.0 mi North 11.5 mph - N/A   Overcast
2:15 PM 37.6 °F 29.1 °F 31.3 °F 78% 30.13 in 10.0 mi North 13.8 mph - N/A   Overcast
2:35 PM 38.7 °F 29.5 °F 31.6 °F 76% 30.13 in 10.0 mi North 17.3 mph 20.7 mph N/A   Overcast
2:55 PM 37.8 °F 28.3 °F 31.1 °F 77% 30.12 in 10.0 mi NNW 17.3 mph - N/A   Overcast
3:15 PM 37.9 °F 29.6 °F 31.3 °F 77% 30.13 in 10.0 mi North 13.8 mph - N/A   Overcast
3:35 PM 36.7 °F 27.2 °F 30.6 °F 78% 30.14 in 10.0 mi North 16.1 mph - N/A   Overcast
3:55 PM 35.2 °F 25.0 °F 29.7 °F 80% 30.14 in 7.0 mi North 17.3 mph - N/A   Overcast
4:15 PM 34.7 °F 25.9 °F 29.3 °F 81% 30.14 in 10.0 mi NNW 12.7 mph - N/A   Overcast
4:35 PM 35.1 °F 26.4 °F 29.3 °F 80% 30.14 in 10.0 mi North 12.7 mph - N/A   Overcast
4:55 PM 34.7 °F 25.5 °F 28.8 °F 79% 30.14 in 10.0 mi North 13.8 mph - N/A   Overcast
5:15 PM 34.2 °F 25.2 °F 28.4 °F 79% 30.15 in 10.0 mi North 12.7 mph - N/A   Overcast
5:35 PM 33.8 °F 23.9 °F 28.2 °F 80% 30.16 in 10.0 mi NNW 15.0 mph - N/A   Overcast
5:55 PM 33.4 °F 23.1 °F 28.0 °F 81% 30.17 in 10.0 mi North 16.1 mph - N/A   Overcast
6:15 PM 33.1 °F 24.4 °F 28.2 °F 82% 30.19 in 10.0 mi NNW 11.5 mph 17.3 mph N/A   Overcast
6:35 PM 32.9 °F 23.7 °F 28.4 °F 84% 30.19 in 10.0 mi North 12.7 mph - N/A   Overcast
6:55 PM 32.0 °F 23.0 °F 28.0 °F 85% 30.20 in 10.0 mi NNW 11.5 mph 17.3 mph N/A   Overcast
7:15 PM 31.3 °F 23.3 °F 27.5 °F 86% 30.20 in 10.0 mi North 9.2 mph - N/A   Scattered Clouds
7:35 PM 30.7 °F 24.1 °F 27.0 °F 86% 30.21 in 10.0 mi NNW 6.9 mph - N/A   Clear
7:55 PM 30.6 °F 22.4 °F 27.1 °F 87% 30.21 in 10.0 mi NNW 9.2 mph - N/A   Clear
8:15 PM 30.2 °F 21.9 °F 27.1 °F 88% 30.21 in 10.0 mi NNW 9.2 mph - N/A   Scattered Clouds
8:35 PM 29.8 °F 22.2 °F 27.0 °F 89% 30.21 in 10.0 mi NNW 8.1 mph - N/A   Scattered Clouds
8:55 PM 29.5 °F 21.1 °F 26.6 °F 89% 30.21 in 10.0 mi North 9.2 mph - N/A   Scattered Clouds
9:15 PM 29.7 °F 22.8 °F 26.6 °F 88% 30.21 in 10.0 mi North 6.9 mph - N/A   Scattered Clouds
9:35 PM 29.3 °F 21.5 °F 26.4 °F 89% 30.22 in 10.0 mi NNW 8.1 mph - N/A   Scattered Clouds
9:55 PM 29.3 °F 21.5 °F 26.4 °F 89% 30.22 in 10.0 mi NNW 8.1 mph - N/A   Scattered Clouds
10:15 PM 29.1 °F 22.1 °F 26.4 °F 90% 30.21 in 10.0 mi NNW 6.9 mph - N/A   Scattered Clouds
10:35 PM 28.4 °F 21.2 °F 25.9 °F 90% 30.21 in 10.0 mi NNW 6.9 mph - N/A   Scattered Clouds
10:55 PM 28.2 °F 22.0 °F 25.7 °F 90% 30.22 in 10.0 mi NW 5.8 mph - N/A   Scattered Clouds
11:15 PM 28.2 °F 22.0 °F 25.7 °F 90% 30.21 in 10.0 mi NNW 5.8 mph - N/A   Scattered Clouds
11:35 PM 27.5 °F 21.1 °F 25.3 °F 92% 30.22 in 10.0 mi NW 5.8 mph - N/A   Clear
11:55 PM 28.2 °F 21.0 °F 26.1 °F 92% 30.23 in 10.0 mi NW 6.9 mph - N/A   Clear